Terminal Aerodrome Forecast
Issued by NWS St Louis, MO

Home | Current Version | Previous Version | Text Only | Print | Product List | Glossary On
Versions: 1 2 3 4 5 6 7 8 9 10 11 12 13 14 15 16 17 18 19 20 21 22 23 24 25 26 27 28 29 30 31 32 33
717
FTUS43 KLSX 061458 AAB
TAFSTL
TAF AMD
KSTL 061458Z 0615/0718 33008KT P6SM OVC010
     FM061700 31009KT P6SM SCT015
     FM061900 30007KT P6SM SCT015 BKN070
     FM062100 30011KT P6SM SCT250=

USA.gov is the U.S. government's official web portal to all federal, state and local government web resources and services.